If you wish to contribute or participate in the discussions about articles you are invited to join SKYbrary as a registered user

 Actions

Istanbul Airport

From SKYbrary Wiki

LTFM
Airport
ICAO: LTFM – IATA: IST
Summary
Name Istanbul Airport
Region Europe
Territory Turkey TR.gif
Location Arnavutkoy, Istanbul
Serving Istanbul
Elevation 99.06 m
325 ft99.06 m
Coordinates 41° 15' 41.47" N, 28° 44' 33.79" E
Runways
Designator Length Width Surface ROPS


METAR
Observation LTFM 270420Z 19003KT 0800 0300S R35R/1500U R17L/P1500N R34L/0750N R36/0375N BCFG BKN003 13/13 Q1015 BECMG 0200 FG VV001
Station Istanbul New Airport
Date/Time 27 October 2020 04:20:00
Wind direction 190°
Wind speed 03 kts
Lowest cloud amount broken clouds
Temperature 13°C
Dew point 13°C
Humidity 100%
QNH 1015 hPa
Weather condition n/a

Istanbul Airport is the main international airport serving Istanbul, Turkey. It is located in the Arnavutköy district on the European side of the city.

Climatology

Dry-summer subtropical ”Mediterranean" climate (Köppen climate classification Csa)

Maps

Terrain

Loading map...

Airport Layout

Loading map...


Accidents & Serious Incidents at or in vicinity of LTFM

None on SKYbrary